Tracking 19170 objects as of 23-May-2018
HD Live streaming from Space Station
objects crossing your sky now

NOAA 16 DEB

Track NOAA 16 DEB now!
10-day predictions


NORAD ID: 42389
Int'l Code: 2000-055SH
Perigee: 790.0 km
Apogee: 802.8 km
Inclination: 99.1 °
Period: 100.6 minutes
Semi major axis: 7167 km
RCS: Unknown
Launch date: September 21, 2000
Source: United States (US)
Launch site: AIR FORCE WESTERN TEST RANGE (AFWTR)

Note: This is SATELLITE DEBRIS
aabbcc
Your satellite tracking list
Your tracking list is empty




NASA's NSSDC Master Catalog

Two Line Element Set (TLE):
1 42389U 00055SH  18142.26581346  .00003384  00000-0  13101-2 0  9993
2 42389  99.1332 249.9045 0008933 114.5963 245.6150 14.30739030215168
Source of the keplerian elements: AFSPC